Latest Coastal Weather Observations for Northern Endeavour (near 10.5S 126E)

IDD60701

Issued at 5:01 am CST Monday 2 March 2015 (issued every 10 minutes, with the page automatically refreshed every 10 minutes)

About coastal observations | Map of coastal stations | Coastal observations for NT | Marine services | Other Formats
Station Details ID: 200212 Name: NORTHERN ENDEAVOUR Lat: -10.61 Lon: 125.98 Height: 16.0 m
Data from the previous 72 hours. | See also: Recent months for locations in Northern Territory
Date/Time
CST
Temp

°C
Wind Pressure Rain
since 9am
mm
Weather Cloud Vis
km
Sea
Height
m
Swell
Dir
 
Speed
knots
Gust
knots
hPa Trend Height
m
Period
s
Dir
02/05:00am 28.3 W 20 21 1006.7 - - - Partly cloudy 10 - - - -
02/04:50am 28.2 W 22 23 1006.7 - - - Partly cloudy 10 - - - -
02/04:40am 28.4 W 21 24 1006.8 - - - Partly cloudy 10 - - - -
02/04:30am 28.4 W 21 23 1006.7 - - - Partly cloudy 10 - - - -
02/04:20am 28.8 W 20 22 1006.7 - - - Partly cloudy 10 - - - -
02/04:10am 29.1 W 20 23 1006.9 - - - Partly cloudy 10 - - - -
02/04:00am 29.7 W 20 22 1007.0 - - - Partly cloudy 10 - - - -
02/03:50am 28.5 W 20 21 1006.9 - - - Cloudy 10 - - - -
02/03:40am 28.9 W 20 21 1006.9 - - - Partly cloudy 10 - - - -
02/03:30am 28.3 W 21 21 1007.0 - - - Partly cloudy 10 - - - -
02/03:20am 28.3 W 21 24 1007.2 - - - Partly cloudy 10 - - - -
02/03:10am 28.2 W 19 21 1007.4 - - - Partly cloudy 10 - - - -
02/03:00am 28.8 W 20 22 1007.4 - - - Partly cloudy 10 - - - -
02/02:50am 28.5 W 18 22 1007.5 - - - Partly cloudy 10 - - - -
02/02:40am 28.6 W 19 20 1007.6 - - - - 10 - - - -
02/02:30am 28.3 W 18 20 1007.8 - - - - 10 - - - -
02/02:20am 28.5 W 18 19 1007.8 - - - - 10 - - - -
02/02:10am 28.3 W 18 20 1007.8 - - - - 10 - - - -
02/02:00am 28.3 W 17 21 1007.8 - - - - 10 - - - -
02/01:50am 28.3 W 17 19 1007.9 - - - - 10 - - - -
02/01:40am 28.2 W 15 15 1007.9 - - - - 10 - - - -
02/01:30am 28.3 WSW 16 17 1008.1 - - - Partly cloudy 10 - - - -
02/01:20am 28.3 WSW 13 17 1008.1 - - - Partly cloudy 10 - - - -
02/01:10am 28.3 WSW 20 19 1008.0 - - - Partly cloudy 10 - - - -
02/01:00am 28.2 WSW 21 22 1008.2 - - - Partly cloudy 10 - - - -
02/12:50am 28.4 WSW 18 22 1008.2 - - - Partly cloudy 10 - - - -
02/12:40am 29.1 W 21 22 1008.3 - - - Partly cloudy 10 - - - -
02/12:30am 28.8 W 20 22 1008.6 - - - Partly cloudy 10 - - - -
02/12:20am 28.9 W 19 21 1008.6 - - - Partly cloudy 10 - - - -
02/12:10am 28.9 W 19 21 1008.5 - - - Partly cloudy 10 - - - -
02/12:00am 28.9 W 19 20 1008.7 - - - Partly cloudy 10 - - - -
 
Date/Time
CST
Temp

°C
Wind Pressure Rain
since 9am
mm
Weather Cloud Vis
km
Sea
Height
m
Swell
Dir
 
Speed
knots
Gust
knots
hPa Trend Height
m
Period
s
Dir
01/11:50pm 28.9 W 18 20 1008.9 - - - - 10 - - - -
01/11:40pm 29.0 W 19 19 1009.0 - - - - 10 - - - -
01/11:30pm 29.0 W 19 19 1008.9 - - - - 10 - - - -
01/11:20pm 29.1 W 18 19 1009.0 - - - - 10 - - - -
01/11:10pm 29.2 W 18 19 1009.0 - - - - 10 - - - -
01/11:00pm 28.9 W 17 19 1008.9 - - - Partly cloudy 10 - - - -
01/10:50pm 28.9 W 16 18 1008.9 - - - Partly cloudy 10 - - - -
01/10:40pm 28.9 W 17 18 1008.8 - - - Partly cloudy 10 - - - -
01/10:30pm 28.9 W 17 18 1009.0 - - - Partly cloudy 10 - - - -
01/10:20pm 28.8 W 17 19 1008.8 - - - Cloudy 10 - - - -
01/10:10pm 28.8 W 17 18 1008.7 - - - Cloudy 10 - - - -
01/10:00pm 28.6 W 14 18 1008.6 - - - Partly cloudy 10 - - - -
01/09:50pm 28.2 W 15 16 1008.6 - - - Cloudy 10 - - - -
01/09:40pm 27.9 W 17 16 1008.5 - - - Partly cloudy 10 - - - -
01/09:30pm 27.8 W 19 19 1008.3 - - - Partly cloudy 10 - - - -
01/09:20pm 28.1 W 19 18 1008.3 - - - Partly cloudy 10 - - - -
01/09:10pm 28.6 WSW 16 21 1008.3 - - - Partly cloudy 10 - - - -
01/09:00pm 28.9 WSW 14 17 1008.2 - - - Partly cloudy 10 - - - -
01/08:50pm 29.0 WSW 15 17 1008.1 - - - Partly cloudy 10 - - - -
01/08:40pm 29.1 WSW 13 19 1008.0 - - - Partly cloudy 10 - - - -
01/08:30pm 28.8 WSW 13 15 1008.0 - - - Partly cloudy 10 - - - -
01/08:20pm 29.2 WSW 18 19 1007.9 - - - Partly cloudy 10 - - - -
01/08:10pm 29.2 WSW 15 20 1007.8 - - - Partly cloudy 10 - - - -
01/08:00pm 28.9 WSW 14 14 1007.8 - - - Partly cloudy 10 - - - -
01/07:50pm 29.0 WSW 16 19 1007.7 - - - Partly cloudy 10 - - - -
01/07:40pm 29.0 WSW 15 18 1007.6 - - - Partly cloudy 10 - - - -
01/07:30pm 28.8 WSW 13 15 1007.6 - - - Partly cloudy 10 - - - -
01/07:20pm 28.9 WSW 17 18 1007.4 - - - Partly cloudy 10 - - - -
01/07:10pm 28.9 WSW 16 18 1007.1 - - - Cloudy 10 - - - -
01/07:00pm 29.4 WSW 17 20 1007.1 - - - Partly cloudy 10 - - - -
01/06:50pm 29.1 WSW 17 18 1007.1 - - - Partly cloudy 10 - - - -
01/06:40pm 29.3 WSW 17 19 1007.0 - - - Partly cloudy 10 - - - -
01/06:30pm 29.4 WSW 19 23 1006.9 - - - Partly cloudy 10 - - - -
01/06:20pm 29.5 WSW 19 23 1006.6 - - - Partly cloudy 10 - - - -
01/06:10pm 29.7 WSW 20 22 1006.4 - - - Partly cloudy 10 - - - -
01/06:00pm 29.6 WSW 19 21 1006.5 - - - Partly cloudy 10 - - - -
01/05:50pm 29.6 WSW 18 21 1006.6 - - - Partly cloudy 10 - - - -
01/05:40pm 29.8 WSW 18 22 1006.5 - - - Partly cloudy 10 - - - -
01/05:30pm 29.8 WSW 13 18 1006.5 - - - Cloudy 10 - - - -
01/05:20pm 29.2 WSW 13 15 1006.3 - - - Partly cloudy 10 - - - -
01/05:10pm 29.4 WSW 12 17 1006.3 - - - Partly cloudy 10 - - - -
01/05:00pm 29.3 WSW 13 14 1006.2 - - - Partly cloudy 10 - - - -
01/04:50pm 29.7 WSW 18 21 1006.1 - - - Partly cloudy 10 - - - -
01/04:40pm 30.2 WSW 19 23 1006.1 - - - - 10 - - - -
01/04:30pm 29.4 WSW 16 20 1006.0 - - - Partly cloudy 10 - - - -
01/04:20pm 29.5 WSW 18 20 1006.0 - - - Partly cloudy 10 - - - -
01/04:10pm 29.5 WSW 17 22 1006.1 - - - Partly cloudy 10 - - - -
01/04:00pm 30.3 WSW 20 23 1006.0 - - - Partly cloudy 10 - - - -
01/03:50pm 29.3 WSW 14 21 1006.2 - - - Partly cloudy 10 - - - -
01/03:40pm 29.4 WSW 17 18 1006.2 - - - Partly cloudy 10 - - - -
01/03:30pm 29.3 WSW 14 20 1006.4 - - - Partly cloudy 10 - - - -
01/03:20pm 28.9 WSW 17 21 1006.5 - - - Partly cloudy 10 - - - -
01/03:17pm 28.8 WSW 16 26 1006.5 - - - Partly cloudy 10 - - - -
01/03:10pm 29.4 WSW 15 20 1006.5 - - - Partly cloudy 10 - - - -
01/03:00pm 29.3 WSW 18 21 1006.9 - - - Partly cloudy 10 - - - -
01/02:50pm 29.6 WSW 18 19 1007.1 - - - Partly cloudy 10 - - - -
01/02:40pm 29.1 WSW 18 18 1007.3 - - - Partly cloudy 10 - - - -
01/02:30pm 30.2 WSW 19 21 1007.3 - - - Partly cloudy 10 - - - -
01/02:20pm 30.1 WSW 18 22 1007.4 - - - Partly cloudy 10 - - - -
01/02:10pm 29.8 WSW 17 22 1007.6 - - - Partly cloudy 10 - - - -
01/02:00pm 29.5 WSW 18 21 1007.6 - - - Partly cloudy 10 - - - -
01/01:50pm 30.0 WSW 19 22 1007.5 - - - - 10 - - - -
01/01:40pm 30.1 WSW 19 21 1007.7 - - - - 10 - - - -
01/01:30pm 30.3 W 23 23 1007.7 - - - - 10 - - - -
01/01:20pm 30.3 W 23 23 1007.7 - - - - 10 - - - -
01/01:10pm 30.3 W 22 27 1007.7 - - - - 10 - - - -
01/01:00pm 30.0 W 21 23 1007.9 - - - - 10 - - - -
01/12:50pm 30.2 W 21 26 1007.9 - - - - 10 - - - -
01/12:40pm 30.0 W 22 26 1008.1 - - - Partly cloudy 10 - - - -
01/12:30pm 30.0 W 22 24 1008.2 - - - Partly cloudy 10 - - - -
01/12:20pm 30.0 W 23 28 1008.5 - - - Partly cloudy 10 - - - -
01/12:10pm 29.7 W 22 24 1008.6 - - - Partly cloudy 10 - - - -
01/12:00pm 29.8 W 22 23 1008.7 - - - Partly cloudy 10 - - - -
01/11:50am 30.1 W 21 24 1008.7 - - - Partly cloudy 10 - - - -
01/11:40am 30.0 W 22 23 1008.9 - - - Partly cloudy 10 - - - -
01/11:30am 29.7 W 21 23 1009.1 - - - Partly cloudy 10 - - - -
01/11:20am 29.2 W 20 23 1009.0 - - - Cloudy 10 - - - -
01/11:10am 29.0 W 21 23 1009.0 - - - Partly cloudy 10 - - - -
01/11:00am 28.8 W 22 23 1009.1 - - - Cloudy 10 - - - -
01/10:50am 28.5 W 22 26 1009.1 - - - Partly cloudy 10 - - - -
01/10:40am 28.6 W 23 25 1009.1 - - - Partly cloudy 10 - - - -
01/10:30am 28.4 W 23 24 1009.2 - - - Partly cloudy 10 - - - -
01/10:20am 28.5 WNW 23 23 1009.3 - - - Partly cloudy 10 - - - -
01/10:10am 30.1 WNW 24 25 1009.2 - - - Partly cloudy 10 - - - -
01/10:00am 29.8 WNW 22 24 1009.1 - - - Partly cloudy 10 - - - -
01/09:50am 28.9 WNW 21 24 1009.2 - - - Partly cloudy 10 - - - -
01/09:40am 28.7 WNW 22 24 1009.3 - - - Partly cloudy 6 - - - -
01/09:30am 27.9 WNW 20 22 1009.5 - - - Partly cloudy 10 - - - -
01/09:20am 27.1 WNW 18 20 1009.8 - - - Partly cloudy 10 - - - -
01/09:10am 27.2 WNW 18 19 1009.9 - - - Partly cloudy 8 - - - -
01/09:00am 27.2 WNW 18 21 1010.1 - - - Partly cloudy 10 - - - -
01/08:50am 26.8 WNW 17 19 1009.9 - - - Partly cloudy 10 - - - -
01/08:40am 26.1 W 17 20 1010.0 - - - Partly cloudy 9 - - - -
01/08:30am 25.4 W 15 21 1009.9 - - - Partly cloudy 6 - - - -
01/08:20am 26.2 WNW 20 21 1010.0 - - - Partly cloudy 6 - - - -
01/08:10am 26.5 WNW 22 24 1010.0 - - - Partly cloudy 10 - - - -
01/08:00am 26.2 WNW 24 26 1009.6 - - - Cloudy 10 - - - -
01/07:50am 26.3 WNW 24 29 1009.5 - - - Partly cloudy 10 - - - -
01/07:40am 26.5 WNW 23 25 1009.4 - - - Partly cloudy 8 - - - -
01/07:30am 26.1 NW 23 25 1009.3 - - - Partly cloudy 8 - - - -
01/07:20am 25.6 NW 24 25 1008.9 - - - Partly cloudy 8 - - - -
01/07:10am 25.3 WNW 23 27 1008.8 - - - Partly cloudy 8 - - - -
01/07:00am 24.4 W 27 25 1008.7 - - - Partly cloudy 1 - - - -
01/06:50am 26.0 W 26 35 1008.6 - - - Partly cloudy 3 - - - -
01/06:40am 26.8 WNW 21 33 1008.3 - - - Partly cloudy 10 - - - -
01/06:38am 28.6 NW 18 31 1008.5 - - - Partly cloudy 10 - - - -
01/06:30am 29.1 WNW 17 17 1008.5 - - - Partly cloudy 10 - - - -
01/06:20am 29.2 WNW 16 17 1008.3 - - - Partly cloudy 10 - - - -
01/06:10am 28.6 WNW 16 17 1007.9 - - - Partly cloudy 10 - - - -
01/06:00am 28.6 WNW 17 18 1007.5 - - - Partly cloudy 10 - - - -
01/05:50am 28.7 WNW 20 20 1007.4 - - - Partly cloudy 10 - - - -
01/05:40am 27.6 WNW 21 22 1007.3 - - - Partly cloudy 10 - - - -
01/05:30am 27.9 WNW 23 24 1007.2 - - - Partly cloudy 10 - - - -
01/05:20am 28.5 WNW 22 23 1007.2 - - - Partly cloudy 10 - - - -
01/05:10am 28.7 W 19 20 1006.8 - - - Partly cloudy 10 - - - -
01/05:00am 29.1 W 17 20 1006.8 - - - Partly cloudy 10 - - - -
01/04:50am 28.6 W 15 17 1006.9 - - - Partly cloudy 10 - - - -
01/04:40am 27.6 W 11 15 1006.8 - - - Partly cloudy 10 - - - -
01/04:30am 27.1 W 13 11 1007.1 - - - Partly cloudy 10 - - - -
01/04:20am 27.3 WSW 17 17 1007.1 - - - Partly cloudy 4 - - - -
01/04:10am 28.9 W 15 17 1007.1 - - - Partly cloudy 10 - - - -
01/04:00am 28.8 W 15 16 1007.1 - - - Partly cloudy 10 - - - -
01/03:50am 28.8 W 14 16 1007.1 - - - Partly cloudy 10 - - - -
01/03:40am 28.8 W 14 15 1007.0 - - - Partly cloudy 10 - - - -
01/03:30am 28.9 W 15 15 1007.0 - - - Partly cloudy 10 - - - -
01/03:20am 28.9 W 15 16 1007.1 - - - Partly cloudy 10 - - - -
01/03:10am 29.0 W 16 18 1007.2 - - - Partly cloudy 10 - - - -
01/03:00am 29.0 W 16 16 1007.3 - - - Cloudy 10 - - - -
01/02:50am 28.9 W 16 18 1007.5 - - - Partly cloudy 10 - - - -
01/02:40am 29.4 W 18 18 1007.5 - - - Partly cloudy 10 - - - -
01/02:30am 29.0 W 16 18 1007.6 - - - Partly cloudy 10 - - - -
01/02:20am 28.9 W 17 19 1007.7 - - - Partly cloudy 10 - - - -
01/02:10am 29.0 W 18 17 1007.9 - - - Partly cloudy 10 - - - -
01/02:00am 29.4 W 17 21 1008.0 - - - Partly cloudy 10 - - - -
01/01:50am 28.9 W 14 15 1008.2 - - - Partly cloudy 10 - - - -
01/01:40am 29.2 W 15 15 1008.4 - - - Partly cloudy 10 - - - -
01/01:30am 29.1 W 15 15 1008.7 - - - Partly cloudy 10 - - - -
01/01:20am 29.2 W 15 16 1008.7 - - - Partly cloudy 10 - - - -
01/01:10am 29.1 W 16 17 1009.0 - - - Partly cloudy 10 - - - -
01/01:00am 29.0 W 15 16 1009.0 - - - Partly cloudy 10 - - - -
01/12:50am 29.0 W 15 16 1009.1 - - - Partly cloudy 10 - - - -
01/12:40am 29.1 W 16 18 1009.2 - - - Partly cloudy 10 - - - -
01/12:30am 29.0 W 16 17 1009.3 - - - Partly cloudy 10 - - - -
01/12:20am 29.0 W 16 17 1009.2 - - - Partly cloudy 10 - - - -
01/12:10am 28.9 W 15 16 1009.3 - - - Partly cloudy 10 - - - -
01/12:00am 28.9 W 15 15 1009.5 - - - Partly cloudy 10 - - - -
 
Date/Time
CST
Temp

°C
Wind Pressure Rain
since 9am
mm
Weather Cloud Vis
km
Sea
Height
m
Swell
Dir
 
Speed
knots
Gust
knots
hPa Trend Height
m
Period
s
Dir
28/11:50pm 29.0 W 16 17 1009.6 - - - Partly cloudy 10 - - - -
28/11:40pm 29.1 W 16 17 1009.6 - - - Partly cloudy 10 - - - -
28/11:30pm 29.1 W 16 17 1009.7 - - - Partly cloudy 10 - - - -
28/11:20pm 29.2 W 16 17 1009.6 - - - Partly cloudy 10 - - - -
28/11:10pm 29.2 W 17 18 1009.7 - - - Partly cloudy 10 - - - -
28/11:00pm 29.2 W 17 19 1009.5 - - - Cloudy 10 - - - -
28/10:50pm 29.2 W 16 17 1009.7 - - - Partly cloudy 10 - - - -
28/10:40pm 29.2 W 14 16 1009.6 - - - Partly cloudy 10 - - - -
28/10:30pm 29.2 W 16 17 1009.6 - - - Partly cloudy 10 - - - -
28/10:20pm 29.2 W 18 19 1009.5 - - - Partly cloudy 10 - - - -
28/10:10pm 29.3 W 18 20 1009.4 - - - Partly cloudy 10 - - - -
28/10:00pm 29.1 W 18 18 1009.3 - - - Partly cloudy 10 - - - -
28/09:50pm 29.1 W 18 19 1009.2 - - - Partly cloudy 10 - - - -
28/09:30pm 29.2 W 18 19 1008.9 - - - Partly cloudy 10 - - - -
28/09:20pm 29.0 W 19 20 1008.6 - - - Partly cloudy 10 - - - -
28/09:10pm 29.1 W 18 21 1008.5 - - - Partly cloudy 10 - - - -
28/09:00pm 29.2 W 19 21 1008.4 - - - Partly cloudy 10 - - - -
28/08:50pm 29.2 W 19 20 1008.0 - - - Partly cloudy 10 - - - -
28/08:40pm 29.1 WNW 19 20 1007.8 - - - Partly cloudy 10 - - - -
28/08:30pm 29.1 WNW 20 22 1007.6 - - - Partly cloudy 10 - - - -
28/08:20pm 29.5 W 19 21 1007.5 - - - Partly cloudy 10 - - - -
28/08:10pm 29.2 W 19 20 1007.4 - - - Partly cloudy 10 - - - -
28/08:00pm 29.6 W 18 19 1007.4 - - - Partly cloudy 10 - - - -
28/07:50pm 29.3 W 18 19 1007.3 - - - Partly cloudy 10 - - - -
28/07:40pm 29.4 W 18 19 1007.2 - - - Partly cloudy 10 - - - -
28/07:30pm 29.4 W 17 18 1006.9 - - - Partly cloudy 10 - - - -
28/07:20pm 29.3 W 17 17 1006.8 - - - Partly cloudy 10 - - - -
28/07:10pm 29.4 W 17 18 1006.6 - - - Partly cloudy 10 - - - -
28/07:00pm 29.5 W 17 19 1006.5 - - - Partly cloudy 10 - - - -
28/06:50pm 29.7 W 16 18 1006.4 - - - Partly cloudy 10 - - - -
28/06:40pm 30.0 W 17 16 1006.3 - - - - 10 - - - -
28/06:30pm 29.9 W 17 18 1006.4 - - - Partly cloudy 10 - - - -
28/06:20pm 30.0 W 18 19 1006.5 - - - Partly cloudy 10 - - - -
28/06:10pm 30.3 WSW 17 19 1006.6 - - - Partly cloudy 10 - - - -
28/06:00pm 29.8 WSW 16 18 1006.7 - - - Partly cloudy 10 - - - -
28/05:50pm 30.3 WSW 18 19 1006.6 - - - Partly cloudy 10 - - - -
28/05:40pm 30.2 WSW 18 19 1006.5 - - - Partly cloudy 10 - - - -
28/05:30pm 30.6 WSW 18 21 1006.4 - - - Partly cloudy 10 - - - -
28/05:20pm 30.6 WSW 17 20 1006.4 - - - Partly cloudy 10 - - - -
28/05:10pm 30.4 WSW 17 18 1006.4 - - - Partly cloudy 10 - - - -
28/05:00pm 31.1 WSW 18 20 1006.3 - - - Partly cloudy 10 - - - -
28/04:50pm 30.3 WSW 16 19 1006.4 - - - Partly cloudy 10 - - - -
28/04:40pm 30.3 WSW 13 18 1006.3 - - - Partly cloudy 10 - - - -
28/04:30pm 30.0 WSW 14 16 1006.4 - - - Partly cloudy 10 - - - -
28/04:20pm 30.0 WSW 12 17 1006.5 - - - Partly cloudy 10 - - - -
28/04:10pm 29.8 WSW 12 15 1006.4 - - - - 10 - - - -
28/04:00pm 29.9 WSW 14 18 1006.4 - - - - 10 - - - -
28/03:50pm 30.6 WSW 17 19 1006.6 - - - Partly cloudy 10 - - - -
28/03:40pm 30.2 WSW 12 19 1006.7 - - - Partly cloudy 10 - - - -
28/03:30pm 30.7 W 18 14 1006.9 - - - Partly cloudy 10 - - - -
28/03:20pm 31.5 W 19 19 1006.8 - - - Partly cloudy 10 - - - -
28/03:10pm 31.3 W 17 20 1006.8 - - - Partly cloudy 10 - - - -
28/03:00pm 31.9 W 17 18 1006.9 - - - Partly cloudy 10 - - - -
28/02:50pm 31.6 W 15 19 1007.0 - - - Partly cloudy 10 - - - -
28/02:40pm 30.0 W 15 14 1007.3 - - - Partly cloudy 10 - - - -
28/02:30pm 31.9 W 17 18 1007.6 - - - Partly cloudy 10 - - - -
28/02:20pm 31.4 W 16 18 1007.7 - - - - 10 - - - -
28/02:10pm 31.0 W 15 16 1007.9 - - - Partly cloudy 10 - - - -
28/02:00pm 31.4 W 14 15 1008.1 - - - Partly cloudy 10 - - - -
28/01:50pm 31.0 W 14 15 1008.2 - - - Partly cloudy 10 - - - -
28/01:40pm 30.5 W 14 15 1008.2 - - - Partly cloudy 10 - - - -
28/01:30pm 30.4 W 13 17 1008.5 - - - Partly cloudy 10 - - - -
28/01:20pm 31.9 W 15 16 1008.6 - - - Partly cloudy 10 - - - -
28/01:10pm 31.3 W 15 16 1008.8 - - - Partly cloudy 10 - - - -
28/01:00pm 31.9 W 17 17 1009.0 - - - Partly cloudy 10 - - - -
28/12:50pm 32.0 W 17 19 1009.2 - - - Partly cloudy 10 - - - -
28/12:40pm 32.4 W 18 20 1009.2 - - - Partly cloudy 10 - - - -
28/12:30pm 32.1 W 18 19 1009.2 - - - Partly cloudy 10 - - - -
28/12:20pm 32.2 W 18 19 1009.4 - - - - 10 - - - -
28/12:10pm 32.2 W 18 21 1009.3 - - - - 10 - - - -
28/12:00pm 32.7 W 16 17 1009.4 - - - - 10 - - - -
28/11:50am 32.5 W 16 17 1009.4 - - - - 10 - - - -
28/11:40am 33.1 W 15 16 1009.3 - - - - 10 - - - -
28/11:30am 32.3 W 16 17 1009.2 - - - - 10 - - - -
28/11:20am 32.3 WNW 15 17 1009.3 - - - - 10 - - - -
28/11:10am 31.9 W 16 17 1009.5 - - - - 10 - - - -
28/11:00am 31.4 WNW 15 16 1009.5 - - - - 10 - - - -
28/10:50am 30.7 WNW 15 17 1009.6 - - - Partly cloudy 10 - - - -
28/10:40am 29.9 WNW 16 16 1009.6 - - - Partly cloudy 10 - - - -
28/10:30am 29.8 WNW 16 19 1009.6 - - - Cloudy 10 - - - -
28/10:20am 29.5 WNW 15 17 1009.6 - - - Cloudy 10 - - - -
28/10:10am 29.3 WNW 15 16 1009.7 - - - Partly cloudy 10 - - - -
28/10:00am 29.4 W 15 16 1009.8 - - - Partly cloudy 10 - - - -
28/09:50am 29.0 W 14 15 1010.0 - - - Partly cloudy 10 - - - -
28/09:40am 28.7 W 15 14 1010.0 - - - Partly cloudy 10 - - - -
28/09:30am 28.4 W 18 18 1010.2 - - - Partly cloudy 10 - - - -
28/09:20am 28.2 W 21 21 1010.2 - - - Partly cloudy 10 - - - -
28/09:10am 27.4 W 18 25 1010.3 - - - Partly cloudy 10 - - - -
28/09:00am 28.5 W 12 15 1009.9 - - - Partly cloudy 10 - - - -
28/08:50am 27.7 W 13 13 1009.7 - - - Partly cloudy 10 - - - -
28/08:40am 26.9 W 11 13 1009.7 - - - Partly cloudy 10 - - - -
28/08:30am 26.4 W 13 12 1009.7 - - - Partly cloudy 10 - - - -
28/08:20am 26.5 W 11 15 1009.7 - - - Partly cloudy 10 - - - -
28/08:10am 26.3 W 11 10 1009.6 - - - Cloudy 10 - - - -
28/08:00am 26.5 W 9 12 1009.5 - - - Cloudy 10 - - - -
28/07:50am 26.2 W 10 10 1009.2 - - - Partly cloudy 10 - - - -
28/07:40am 25.7 W 13 14 1009.2 - - - Partly cloudy 10 - - - -
28/07:30am 25.1 WSW 11 12 1009.3 - - - Partly cloudy 5 - - - -
28/07:20am 24.7 SW 14 16 1009.7 - - - Partly cloudy 2 - - - -
28/07:10am 24.1 WSW 18 20 1009.7 - - - Partly cloudy 1 - - - -
28/07:00am 25.2 SW 19 30 1009.4 - - - Partly cloudy 1 - - - -
28/06:58am 25.7 SW 17 32 1009.3 - - - Partly cloudy 1 - - - -
28/06:50am 26.3 WSW 20 21 1009.1 - - - Partly cloudy 1 - - - -
28/06:44am 26.1 WSW 16 28 1008.4 - - - Partly cloudy 1 - - - -
28/06:40am 26.3 W 14 16 1008.3 - - - Partly cloudy 7 - - - -
28/06:30am 28.8 WNW 17 17 1008.3 - - - Partly cloudy 10 - - - -
28/06:20am 28.9 WNW 16 19 1008.1 - - - Partly cloudy 10 - - - -
28/06:10am 28.9 WNW 16 18 1007.7 - - - Partly cloudy 10 - - - -
28/06:00am 29.6 WNW 16 17 1007.7 - - - Partly cloudy 10 - - - -
28/05:50am 29.0 WNW 15 18 1007.8 - - - Partly cloudy 10 - - - -
28/05:40am 28.9 WNW 15 15 1007.8 - - - Partly cloudy 10 - - - -
28/05:30am 29.0 WNW 16 17 1007.7 - - - Partly cloudy 10 - - - -
28/05:20am 29.1 W 15 17 1007.6 - - - Partly cloudy 10 - - - -
28/05:10am 28.9 W 15 16 1007.7 - - - Partly cloudy 10 - - - -
28/05:00am 28.7 W 15 16 1007.8 - - - Partly cloudy 10 - - - -
28/04:50am 28.6 W 15 17 1007.7 - - - Partly cloudy 10 - - - -
28/04:40am 28.7 W 14 14 1007.7 - - - Partly cloudy 10 - - - -
28/04:30am 28.6 W 14 15 1007.6 - - - Partly cloudy 10 - - - -
28/04:20am 28.7 W 14 16 1007.3 - - - - 10 - - - -
28/04:10am 28.7 WNW 14 15 1007.3 - - - - 10 - - - -
28/04:00am 28.7 W 15 16 1007.3 - - - - 10 - - - -
28/03:50am 28.6 W 15 17 1007.3 - - - - 10 - - - -
28/03:40am 28.6 W 15 18 1007.3 - - - - 10 - - - -
28/03:30am 28.5 W 15 17 1007.3 - - - - 10 - - - -
28/03:20am 28.6 W 13 16 1007.2 - - - Partly cloudy 10 - - - -
28/03:10am 28.5 W 13 14 1007.3 - - - Partly cloudy 10 - - - -
28/03:00am 28.6 W 14 15 1007.4 - - - Partly cloudy 10 - - - -
28/02:50am 28.6 W 15 15 1007.6 - - - - 10 - - - -
28/02:40am 28.7 W 14 17 1007.8 - - - - 10 - - - -
28/02:30am 28.6 W 14 16 1007.9 - - - Partly cloudy 10 - - - -
28/02:20am 28.5 W 13 15 1008.1 - - - Partly cloudy 10 - - - -
28/02:10am 28.6 W 13 14 1008.3 - - - Partly cloudy 10 - - - -
28/02:00am 28.7 WSW 14 15 1008.4 - - - Partly cloudy 10 - - - -
28/01:50am 28.6 W 13 16 1008.7 - - - Partly cloudy 10 - - - -
28/01:40am 28.5 W 14 12 1009.0 - - - Partly cloudy 10 - - - -
28/01:30am 28.8 W 15 18 1009.2 - - - Partly cloudy 10 - - - -
28/01:20am 28.7 W 15 16 1009.4 - - - Partly cloudy 10 - - - -
28/01:10am 28.7 W 15 18 1009.5 - - - Partly cloudy 10 - - - -
28/01:00am 28.7 W 15 16 1009.7 - - - Partly cloudy 10 - - - -
28/12:50am 28.8 W 15 17 1009.7 - - - Partly cloudy 10 - - - -
28/12:40am 28.7 W 14 17 1009.7 - - - Partly cloudy 10 - - - -
28/12:30am 28.7 W 14 17 1009.7 - - - Cloudy 10 - - - -
28/12:20am 28.5 W 14 16 1009.7 - - - Cloudy 10 - - - -
28/12:10am 28.4 W 15 16 1009.6 - - - Partly cloudy 10 - - - -
28/12:00am 28.5 W 14 16 1009.6 - - - Partly cloudy 10 - - - -
 
Date/Time
CST
Temp

°C
Wind Pressure Rain
since 9am
mm
Weather Cloud Vis
km
Sea
Height
m
Swell
Dir
 
Speed
knots
Gust
knots
hPa Trend Height
m
Period
s
Dir
27/11:50pm 28.5 W 14 16 1009.6 - - - Partly cloudy 10 - - - -
27/11:40pm 28.5 W 15 15 1009.6 - - - Partly cloudy 10 - - - -
27/11:30pm 28.5 WSW 13 16 1009.5 - - - Cloudy 10 - - - -
27/11:20pm 28.4 WSW 14 14 1009.5 - - - Cloudy 10 - - - -
27/11:10pm 28.4 WSW 13 16 1009.4 - - - Cloudy 10 - - - -
27/11:00pm 28.3 WSW 10 13 1009.4 - - - Cloudy 10 - - - -
27/10:50pm 28.2 WSW 11 15 1009.3 - - - Partly cloudy 10 - - - -
27/10:40pm 28.3 WSW 11 13 1009.2 - - - Partly cloudy 10 - - - -
27/10:30pm 28.2 WSW 10 13 1009.1 - - - Partly cloudy 10 - - - -
27/10:20pm 28.2 WSW 12 15 1009.0 - - - Partly cloudy 10 - - - -
27/10:10pm 28.2 WSW 11 15 1009.0 - - - Partly cloudy 10 - - - -
27/10:00pm 28.2 WSW 11 15 1008.9 - - - Partly cloudy 10 - - - -
27/09:50pm 28.1 WSW 12 17 1008.8 - - - Partly cloudy 10 - - - -
27/09:40pm 28.3 WSW 13 16 1008.6 - - - Partly cloudy 10 - - - -
27/09:30pm 28.0 WSW 14 19 1008.5 - - - Partly cloudy 10 - - - -
27/09:20pm 28.4 WSW 16 20 1008.4 - - - Partly cloudy 10 - - - -
27/09:10pm 28.1 WSW 13 16 1008.5 - - - Partly cloudy 10 - - - -
27/09:00pm 28.1 WSW 12 18 1008.3 - - - Partly cloudy 10 - - - -
27/08:50pm 28.5 WSW 15 20 1008.1 - - - Partly cloudy 10 - - - -
27/08:40pm 28.1 WSW 15 15 1007.9 - - - Partly cloudy 10 - - - -
27/08:30pm 28.2 WSW 15 18 1007.7 - - - Partly cloudy 10 - - - -
27/08:20pm 28.6 W 18 20 1007.7 - - - Partly cloudy 10 - - - -
27/08:10pm 28.6 W 18 20 1007.8 - - - Partly cloudy 10 - - - -
27/08:00pm 28.5 WSW 15 21 1007.8 - - - Partly cloudy 10 - - - -
27/07:50pm 28.2 W 18 20 1007.7 - - - Partly cloudy 10 - - - -
27/07:40pm 28.6 W 22 25 1007.7 - - - Partly cloudy 10 - - - -
27/07:30pm 28.4 W 20 21 1007.8 - - - Partly cloudy 10 - - - -
27/07:20pm 28.6 W 25 28 1007.9 - - - Partly cloudy 10 - - - -
27/07:10pm 28.8 W 20 26 1007.8 - - - Partly cloudy 10 - - - -
27/07:00pm 28.6 W 20 26 1007.4 - - - Partly cloudy 10 - - - -
27/06:50pm 28.6 W 19 20 1007.0 - - - Partly cloudy 10 - - - -
27/06:40pm 28.6 W 18 24 1006.8 - - - Partly cloudy 10 - - - -
27/06:30pm 28.4 WSW 18 21 1006.8 - - - Partly cloudy 10 - - - -
27/06:20pm 30.0 W 18 25 1006.7 - - - Partly cloudy 10 - - - -
27/06:10pm 29.8 W 14 19 1006.7 - - - Partly cloudy 10 - - - -
27/06:00pm 29.8 W 15 19 1006.6 - - - Partly cloudy 10 - - - -
27/05:50pm 30.2 W 17 18 1006.3 - - - Partly cloudy 10 - - - -
27/05:40pm 30.4 W 17 22 1006.3 - - - Partly cloudy 10 - - - -
27/05:30pm 29.7 W 14 19 1006.2 - - - Partly cloudy 10 - - - -
27/05:20pm 29.8 W 14 17 1006.3 - - - - 10 - - - -
27/05:10pm 29.9 W 13 14 1006.2 - - - Partly cloudy 10 - - - -
27/05:00pm 30.0 W 13 15 1006.3 - - - - 10 - - - -
27/04:50pm 29.9 W 12 16 1006.2 - - - - 10 - - - -
27/04:40pm 30.2 W 12 16 1006.2 - - - - 10 - - - -
27/04:30pm 30.1 W 11 15 1006.1 - - - - 10 - - - -
27/04:20pm 29.9 W 10 13 1005.9 - - - - 10 - - - -
27/04:10pm 29.8 W 12 16 1005.7 - - - - 10 - - - -
27/04:00pm 30.0 W 14 15 1005.8 - - - - 10 - - - -
27/03:50pm 30.9 W 14 18 1005.7 - - - - 10 - - - -
27/03:40pm 30.2 W 11 16 1005.8 - - - - 10 - - - -
27/03:30pm 29.9 W 12 17 1005.9 - - - - 10 - - - -
27/03:20pm 30.6 WNW 13 18 1006.0 - - - - 10 - - - -
27/03:10pm 30.5 WNW 15 15 1006.1 - - - - 10 - - - -
27/03:00pm 31.2 WNW 14 16 1006.3 - - - - 10 - - - -
27/02:50pm 31.1 WNW 14 15 1006.4 - - - - 10 - - - -
27/02:40pm 30.1 WNW 9 12 1006.6 - - - - 10 - - - -
27/02:30pm 30.6 WNW 11 14 1006.9 - - - - 10 - - - -
27/02:20pm 30.4 WNW 10 15 1007.0 - - - - 10 - - - -
27/02:10pm 30.0 W 11 15 1007.1 - - - - 10 - - - -
27/02:00pm 29.5 W 14 15 1007.4 - - - - 10 - - - -
27/01:50pm 29.4 W 16 17 1007.7 - - - - 10 - - - -
27/01:40pm 29.5 W 15 18 1008.0 - - - - 10 - - - -
27/01:30pm 29.8 WNW 12 15 1008.2 - - - - 10 - - - -
27/01:20pm 30.0 WNW 11 17 1008.3 - - - - 10 - - - -
27/01:10pm 30.2 WNW 11 12 1008.4 - - - - 10 - - - -
27/01:00pm 30.2 WNW 12 14 1008.4 - - - - 10 - - - -
27/12:50pm 30.7 WNW 12 15 1008.7 - - - - 10 - - - -
27/12:40pm 30.2 WNW 11 17 1008.9 - - - - 10 - - - -
27/12:30pm 30.2 WNW 11 14 1009.2 - - - - 10 - - - -
27/12:20pm 30.4 WNW 13 13 1009.2 - - - Partly cloudy 10 - - - -
27/12:10pm 31.0 WNW 15 17 1009.3 - - - Partly cloudy 10 - - - -
27/12:00pm 32.2 NW 14 16 1009.4 - - - Partly cloudy 10 - - - -
27/11:50am 30.8 WNW 13 16 1009.5 - - - Partly cloudy 10 - - - -
27/11:40am 30.6 W 15 14 1009.6 - - - Partly cloudy 10 - - - -
27/11:30am 31.4 W 14 16 1009.6 - - - Partly cloudy 10 - - - -
27/11:20am 30.1 WNW 11 15 1009.6 - - - Partly cloudy 10 - - - -
27/11:10am 32.0 WNW 14 14 1009.7 - - - - 10 - - - -
27/11:00am 31.6 WNW 14 17 1009.8 - - - - 10 - - - -
27/10:50am 31.6 WNW 14 16 1009.8 - - - Partly cloudy 10 - - - -
27/10:40am 30.6 WNW 14 16 1009.8 - - - Partly cloudy 10 - - - -
27/10:30am 31.4 WNW 16 16 1009.8 - - - Partly cloudy 10 - - - -
27/10:20am 31.7 WNW 16 17 1009.6 - - - Partly cloudy 10 - - - -
27/10:10am 30.2 W 14 20 1009.7 - - - Partly cloudy 10 - - - -
27/10:00am 29.8 WNW 15 20 1009.8 - - - Partly cloudy 10 - - - -
27/09:50am 30.7 WNW 17 19 1009.7 - - - Partly cloudy 10 - - - -
27/09:40am 30.9 WNW 18 20 1009.4 - - - - 10 - - - -
27/09:30am 30.8 WNW 18 19 1009.2 - - - - 10 - - - -
27/09:20am 31.0 WNW 19 20 1008.9 - - - - 10 - - - -
27/09:10am 30.9 WNW 18 20 1008.8 - - - - 10 - - - -
27/09:00am 31.0 WNW 17 20 1008.7 - - - Partly cloudy 10 - - - -
27/08:50am 30.9 WNW 17 19 1008.7 - - - Partly cloudy 10 - - - -
27/08:40am 30.5 W 17 19 1008.7 - - - Partly cloudy 10 - - - -
27/08:30am 30.3 W 18 18 1008.6 - - - Partly cloudy 10 - - - -
27/08:20am 29.6 W 18 20 1008.6 - - - Partly cloudy 10 - - - -
27/08:10am 29.3 W 18 21 1008.3 - - - Partly cloudy 10 - - - -
27/08:00am 29.3 W 18 20 1008.1 - - - Partly cloudy 10 - - - -
27/07:50am 29.1 WNW 19 20 1008.1 - - - Partly cloudy 10 - - - -
27/07:40am 28.9 WNW 18 22 1007.9 - - - Partly cloudy 10 - - - -
27/07:30am 29.4 WNW 18 20 1007.8 - - - Partly cloudy 10 - - - -
27/07:20am 29.0 WNW 18 19 1007.7 - - - Partly cloudy 10 - - - -
27/07:10am 29.2 WNW 17 18 1007.6 - - - Partly cloudy 10 - - - -
27/07:00am 29.3 WNW 18 19 1007.4 - - - Partly cloudy 10 - - - -
27/06:50am 29.4 W 17 22 1007.3 - - - Partly cloudy 10 - - - -
27/06:40am 28.7 W 16 17 1007.2 - - - Partly cloudy 10 - - - -
27/06:30am 28.8 W 16 15 1007.2 - - - Partly cloudy 10 - - - -
27/06:20am 28.7 W 16 18 1007.0 - - - Partly cloudy 10 - - - -
27/06:10am 28.8 W 16 19 1006.8 - - - Partly cloudy 10 - - - -
27/06:00am 28.9 W 16 18 1006.7 - - - Partly cloudy 10 - - - -
27/05:50am 29.0 W 16 17 1006.6 - - - Partly cloudy 10 - - - -
27/05:40am 28.9 W 16 20 1006.5 - - - Partly cloudy 10 - - - -
27/05:30am 28.8 W 14 15 1006.6 - - - Partly cloudy 10 - - - -
27/05:20am 28.9 W 14 15 1006.6 - - - Partly cloudy 10 - - - -
27/05:10am 28.8 W 14 15 1006.6 - - - Partly cloudy 10 - - - -

Other Formats:

Comma delimited format used in spreadsheet applications
http://www.bom.gov.au/fwo/IDD60701/IDD60701.95100.axf

JavaScript Object Notation format (JSON) in row-major order
http://www.bom.gov.au/fwo/IDD60701/IDD60701.95100.json